Location: Chantarel
(45.1638°N, 1.7873°E)
Time: 12:19:46
(UTC+00:00)

Cosmos 1666 - Pass Details

Date: 03 March 2021
Orbit: 497 x 518 km, 82.5° (Epoch: 11 April)

Event Time Altitude Azimuth Distance (km) Brightness Sun altitude
Rises 20:03:32 0° 210° (SSW) 2,574 6.4 -25.3°
Reaches altitude 10° 20:05:47 10° 221° (SW) 1,696 5.6 -25.7°
Maximum altitude 20:09:08 31° 285° (WNW) 896 4.4 -26.2°
Drops below altitude 10° 20:12:30 10° 349° (N) 1,715 5.7 -26.8°
Sets 20:14:49 0° 0° (N) 2,606 6.5 -27.2°
